Location: Krakow
(50.0830°N, 19.9170°E)
Time: 06:49:17
(UTC+02:00)

Tiros 1 despin weight - Pass Details

Date: 18 March 2026
Orbit: 555 x 592 km, 48.2° (Epoch: 18 April)

Event Time Altitude Azimuth Distance (km) Brightness Sun altitude
Rises 07:33:04 0° 275° (W) 2,810 ? 15.7°
Reaches altitude 10° 07:35:23 10° 272° (W) 1,904 ? 16.0°
Maximum altitude 07:39:40 57° 194° (SSW) 683 ? 16.7°
Drops below altitude 10° 07:43:53 10° 116° (ESE) 1,877 ? 17.3°
Sets 07:46:09 0° 112° (ESE) 2,767 ? 17.6°
